Tracking 29892 objects as of 21-Nov-2024
HD Live streaming from Space Station
objects crossing your sky now

USA 40 R/B DEB

Track USA 40 R/B DEB now!
10-day predictions


NORAD ID: 23379
Int'l Code: 1989-061BB
Perigee: 502.6 km
Apogee: 6,545.9 km
Inclination: 57.0 °
Period: 163.3 minutes
Semi major axis: 9895 km
RCS: Unknown
Launch date: August 8, 1989
Source: United States (US)
Launch site: AIR FORCE EASTERN TEST RANGE (AFETR)

Note: This is SATELLITE DEBRIS
Your satellite tracking list
Your tracking list is empty




NASA's NSSDC Master Catalog

Two Line Element Set (TLE):
1 23379U 89061BB  24317.87724906  .00029379  00000-0  19147-1 0  9991
2 23379  57.0035  37.5924 3053608 233.0035  95.0946  8.81987685180751
Source of the keplerian elements: AFSPC